Powrót do katalogu

STARLINK-36767

AktywnyŁącznośćSSO
NORAD 67814·PAYLOAD·🇺🇸 United States

Wystrzelony Feb 15, 2026 z Vandenberg Space Force Base

Loading…

Następne Przeloty (najbliższe 24 godziny)

TLE

ŚwieżeSource: CelesTrak SupGP

Epoka: Sep 15, 2026, 02:34 UTC

1 67814C 26032T   26258.10743056 -.00051672  00000+0 -16039-2 0  2589
2 67814  97.2854  84.5609 0001772  92.4394  23.7527 15.33466976    10

Śledź STARLINK-36767 w czasie rzeczywistym z AllMySat

Download on the App Store